Location: Axtheid
(49.6213°N, 11.8205°E)
Time: 08:57:02
(UTC+00:00)

Cosmos 2344 - Visible Passes

Search period start: 09 May 2021 00:00
Search period end: 19 May 2021 00:00
Orbit: 1241 x 3001 km, 63.3° (Epoch: 08 May)

Date Brightness Start Highest point End Pass type
(mag) Time Alt. Az. Time Alt. Az. Time Alt. Az.
09 May 4.3 00:01:34 10° NW 00:10:44 77° SW 00:23:34 10° SSE visible
09 May 5.3 02:17:07 10° WNW 02:24:36 24° WSW 02:33:52 10° SSW visible
09 May 5.3 19:21:00 10° WNW 19:27:54 33° N 19:36:12 10° ENE visible
09 May 4.9 21:36:53 10° NW 21:44:57 46° NNE 21:55:39 10° E visible
09 May 4.3 23:51:15 10° NW 00:00:24 77° SW 00:13:14 10° SSE visible
10 May 5.3 02:06:47 10° WNW 02:14:16 24° WSW 02:23:31 10° SSW visible
10 May 5.3 19:10:40 10° WNW 19:17:34 33° N 19:25:53 10° ENE visible
10 May 4.9 21:26:33 10° NW 21:34:37 46° NNE 21:45:20 10° E visible
10 May 4.3 23:40:54 10° NW 23:50:04 77° SW 00:02:54 10° SSE visible
11 May 5.4 01:56:28 10° WNW 02:03:56 24° WSW 02:13:04 10° SSW visible
11 May 4.9 21:16:13 10° NW 21:24:17 46° NNE 21:35:01 10° E visible
11 May 4.3 23:30:34 10° NW 23:39:44 77° SW 23:51:08 14° SSE visible
12 May 5.4 01:46:09 10° WNW 01:53:36 23° WSW 02:00:59 14° SSW visible
12 May 4.9 21:05:53 10° NW 21:13:58 46° NNE 21:24:41 10° E visible
12 May 4.3 23:20:14 10° NW 23:29:24 77° SW 23:39:42 18° SSE visible
13 May 5.4 01:35:49 10° WNW 01:43:16 23° WSW 01:49:35 16° SW visible
13 May 4.9 20:55:33 10° NW 21:03:38 46° NNE 21:14:21 10° E visible
13 May 4.3 23:09:55 10° NW 23:19:04 76° SW 23:28:39 20° SSE visible
14 May 5.4 01:25:29 10° WNW 01:32:56 23° WSW 01:38:33 17° SW visible
14 May 4.9 20:45:13 10° NW 20:53:18 46° NNE 21:04:01 10° E visible
14 May 4.3 22:59:34 10° NW 23:08:44 76° SW 23:17:49 22° SSE visible
15 May 5.4 01:15:10 10° WNW 01:22:36 23° WSW 01:27:46 18° SW visible
15 May 4.9 20:34:53 10° NW 20:42:57 47° NNE 20:53:42 10° E visible
15 May 4.3 22:49:14 10° NW 22:58:24 76° SW 23:07:10 23° SSE visible
16 May 5.4 01:04:50 10° WNW 01:12:15 23° WSW 01:17:07 18° SW visible
16 May 4.9 20:24:33 10° NW 20:32:38 47° NNE 20:43:22 10° E visible
16 May 4.3 22:38:54 10° NW 22:48:04 76° SW 22:56:38 24° SSE visible
17 May 5.5 00:54:31 10° WNW 01:01:55 23° WSW 01:06:36 18° SW visible
17 May 4.9 20:14:13 10° NW 20:22:18 47° NNE 20:33:02 10° E visible
17 May 4.3 22:28:35 10° NW 22:37:44 76° SW 22:46:11 24° SSE visible
18 May 5.5 00:44:11 10° WNW 00:51:34 23° WSW 00:56:10 19° SW visible
18 May 4.9 20:03:52 10° NW 20:11:58 47° NNE 20:22:43 10° E visible
18 May 4.3 22:18:14 10° NW 22:27:24 76° SW 22:35:50 24° SSE visible
